#timestamp,LO_Frequency,Hit,StdDev 
1650139215.1,286047000.7,N
1650139216.0,286047000.7,N
1650139235.8,286047001.0,N
1650139255.7,286047002.4,N
1650139275.5,286047002.7,N
1650139295.3,286047000.9,N
1650139315.2,286046999.9,N
1650139335.0,286046999.9,N
1650139335.9,286046999.9,N
1650139355.8,286047002.0,N
1650139375.6,286047001.3,N
1650139395.4,286047000.9,N
1650139415.3,286047000.3,N
1650139435.1,286047001.1,N
1650139455.8,286046999.2,N
1650139475.7,286046998.4,N
1650139495.5,286047000.9,N
1650139515.4,286046998.2,N
1650139535.2,286046998.4,N
1650139555.0,286046999.0,N
1650139555.9,286046999.0,N
1650139575.8,286046999.5,N
1650139595.6,286046999.7,N
1650139615.5,286047000.3,N
1650139635.3,286047000.5,N
1650139655.1,286047001.9,N
1650139675.9,286047001.8,N
1650139695.7,286047004.2,Y
1650139715.5,286047004.1,P
1650139735.4,286047001.6,N
1650139755.2,286047002.0,N
1650139775.1,286047002.5,N
1650139776.0,286047002.5,N
1650139795.8,286047001.5,N
1650139815.6,286047004.4,Y
1650139835.5,286046999.0,P
1650139855.3,286047001.0,N
1650139875.2,286046998.4,N
1650139895.9,286046998.7,N
1650139915.7,286047000.9,N
1650139935.6,286047002.3,N
1650139955.4,286046999.7,N
1650139975.2,286046999.9,N
1650139995.1,286047000.6,N
1650139996.0,286047000.6,N
1650140015.8,286047000.4,N
1650140035.7,286047000.7,N
1650140055.5,286047000.7,N
1650140075.3,286047000.7,N
1650140095.2,286047001.2,N
1650140115.0,286047000.8,N
1650140115.9,286047000.8,N
1650140135.8,286046998.8,N
1650140155.6,286046998.2,N
1650140175.4,286046999.4,N
1650140195.3,286046999.2,N
1650140215.1,286046998.9,N
1650140235.9,286046996.5,Y
1650140255.7,286046997.1,P
1650140275.5,286046997.0,N
1650140295.4,286046997.4,N
1650140315.2,286046994.9,Y
1650140335.1,286046996.5,P
1650140336.0,286046996.5,P
1650140355.8,286046997.5,P
1650140375.6,286046995.0,Y
1650140395.5,286046997.7,P
1650140415.3,286046996.1,P
1650140435.1,286046996.3,P
1650140455.9,286046995.4,Y
1650140475.7,286047000.7,P
1650140495.6,286047004.7,N
1650140515.4,286047025.2,P
1650140535.2,286047026.2,N
1650140555.1,286047026.7,N
1650140556.0,286047026.7,N
1650140575.8,286047021.2,N
1650140595.7,286047016.1,N
1650140615.5,286047014.4,N
1650140635.3,286047012.6,N
1650140655.2,286047012.7,N
1650140675.9,286047013.8,N
1650140695.7,286047012.0,N
1650140715.6,286047011.6,N
1650140735.4,286047011.8,N
1650140755.2,286047009.3,N
1650140775.1,286047009.7,N
1650140776.0,286047009.7,N
1650140795.8,286047008.3,N
1650140815.7,286047004.8,N
1650140835.5,286047001.3,N
1650140855.3,286047001.9,N
1650140875.2,286047001.6,N
1650140895.0,286046999.9,N
1650140895.9,286046999.9,N
1650140915.8,286046998.5,N
1650140935.6,286046997.3,N
1650140955.4,286046995.9,N
1650140975.3,286046993.4,N
1650140995.1,286046995.4,N
1650141015.8,286046995.5,N
1650141035.7,286046994.7,N
1650141055.5,286046994.8,N
1650141075.3,286046993.3,N
1650141095.2,286046994.3,N
1650141115.0,286046992.5,N
1650141115.9,286046992.5,N
1650141135.8,286046991.7,N
1650141155.6,286046992.7,N
1650141175.4,286046992.0,N
1650141195.3,286046993.2,N
1650141215.1,286046992.5,N
1650141235.9,286046991.2,N
1650141255.7,286046991.0,N
1650141275.5,286046988.8,N
1650141295.4,286046989.7,N
1650141315.2,286046987.2,N
1650141335.0,286046992.9,N
1650141335.9,286046992.9,N
1650141355.8,286046991.7,N
1650141375.6,286047002.8,N
1650141395.5,286046999.7,N
1650141415.3,286047000.2,N
1650141435.1,286046998.7,N
1650141455.9,286046996.5,N
1650141475.7,286046997.4,N
1650141495.5,286046997.6,N
1650141515.4,286046995.4,N
1650141535.2,286046995.3,N
1650141555.1,286046995.6,N
1650141556.0,286046995.6,N
1650141575.8,286046995.3,N
1650141595.6,286046996.0,N
1650141615.5,286046993.7,N
1650141635.3,286046993.8,N
1650141655.1,286046993.8,N
1650141675.9,286046993.8,N
1650141695.7,286046994.6,N
1650141715.6,286046991.8,N
1650141735.4,286046993.2,N
1650141755.2,286046990.1,N
1650141775.1,286046993.0,N
1650141776.0,286046993.0,N
1650141795.8,286046990.5,N
1650141815.6,286046991.6,N
1650141835.5,286046988.6,Y
1650141855.3,286046995.9,P
1650141875.2,286046996.1,P
1650141895.9,286046995.0,P
1650141915.7,286046995.4,Y
1650141935.6,286047002.2,P
1650141955.4,286047001.0,N
1650141975.2,286047000.7,N
1650141995.1,286046998.1,N
1650141996.0,286046998.1,N
1650142015.8,286047001.2,N
1650142035.7,286046998.5,N
1650142055.5,286046998.8,N
1650142075.3,286046999.2,N
1650142095.2,286046998.3,N
1650142115.0,286046998.7,N
1650142115.9,286046998.7,N
1650142135.8,286046996.5,N
1650142155.6,286046996.6,N
1650142175.4,286046999.4,N
1650142195.3,286046998.5,N
1650142215.1,286046999.3,N
1650142235.8,286046998.4,N
1650142255.7,286046996.9,N
1650142275.5,286046999.0,N
1650142295.4,286046999.3,N
1650142315.2,286046998.9,N
1650142335.0,286046999.5,N
1650142335.9,286046999.5,N
1650142355.8,286046999.4,N
1650142375.6,286046997.0,N
1650142395.4,286046998.9,N
1650142415.3,286046997.4,N
1650142435.1,286046997.7,N
1650142455.9,286046997.2,N
1650142475.7,286046999.3,N
1650142495.5,286047000.8,N
1650142515.4,286046999.5,N
1650142535.2,286046996.5,Y
1650142555.0,286046998.7,P
1650142556.0,286046998.7,P
1650142575.8,286046998.4,P
1650142595.6,286046998.8,Y
1650142615.5,286047001.0,P
1650142635.3,286047004.4,P
1650142655.1,286047003.8,N
1650142675.9,286047003.3,N
1650142695.7,286047005.9,N
1650142715.6,286047005.6,N
1650142735.4,286047003.4,N
1650142755.2,286047004.5,N
1650142775.1,286047008.5,Y
1650142776.0,286047008.5,P
1650142795.8,286047007.5,N
